Weather Roundup
Issued by NWS

Home | Current Version | Previous Version | Graphics & Text | Print | Product List | Glossary Off
Versions: 1 2 3 4 5 6 7 8 9 10 11 12 13 14 15 16 17 18 19 20 21 22 23 24 25 26 27 28 29 30 31 32 33 34 35 36 37 38 39 40 41 42 43 44 45 46 47 48 49 50

000
NZUS93 KARX 251259
HRRWXR

CURRENT HOURLY OBSERVATIONS ACROSS
MUCH OF THE UPPER MISSISSIPPI VALLEY
NATIONAL WEATHER SERVICE LA CROSSE WI
800 AM CDT FRI JUL 25 2014


...SOUTHEAST MINNESOTA...


CITY           SKY/WX    TMP DP  RH WIND       PRES   REMARKS
ROCHESTER      CLOUDY    63  60  90 S16       29.89R
ROCHESTER/MAYO FAIR      63  60  91 SE13G20   29.88R
WINONA         LGT RAIN  63  61  94 S7        29.84F
AUSTIN         LGT RAIN  63  61  94 S9G16     29.90R
ALBERT LEA     RAIN      64  63  94 S13G21    29.84F
DODGE CENTER   CLOUDY    64  63  94 S13       29.87R
PRESTON        CLOUDY    61  61 100 S12G21    29.89R
OWATONNA       CLOUDY    64  61  88 SE12      29.85F
FARIBAULT      CLOUDY    66  61  82 SE8       29.86R
$$

...ELSEWHERE IN MINNESOTA...


CITY           SKY/WX    TMP DP  RH WIND       PRES   REMARKS
MINNEAPOLIS    CLOUDY    65  63  93 S6        29.85R
INTNL FALLS    MOSUNNY   66  61  84 S5        29.77F
DULUTH         CLOUDY    64  58  80 SE8       29.82F
RED WING       LGT RAIN  64  63  94 S6        29.86R
REDWOOD FALLS  CLOUDY    68  64  87 S15       29.76F
MANKATO        CLOUDY    64  61  88 S9G17     29.81F
WORTHINGTON    PTSUNNY   66  61  82 S18G29    29.81F
FAIRMONT       CLOUDY    66  59  77 S21G29    29.79F
$$

...SOUTHWEST WISCONSIN...


CITY           SKY/WX    TMP DP  RH WIND       PRES   REMARKS
LA CROSSE      CLOUDY    65  61  87 S20G30    29.84F
PRAIRIE DU CHI CLOUDY    65  56  72 SE9       29.98F
BOSCOBEL       CLOUDY    64  59  83 S3        29.98F
LONE ROCK      NOT AVBL
PLATTEVILLE    CLOUDY    62  59  90 S8        30.05R
FORT MC COY    RAIN      64  56  76 S10G18    29.94F
VIROQUA        CLOUDY    61  61  99 S9        29.98F
WIS DELLS      NOT AVBL
$$

...ELSEWHERE IN WISCONSIN...


CITY           SKY/WX    TMP DP  RH WIND       PRES   REMARKS
MILWAUKEE      CLOUDY    63  50  62 SW10      30.04F
MADISON        CLOUDY    65  55  70 SW8       30.03F
GREEN BAY      PTSUNNY   67  56  67 SW13      29.99F
EAU CLAIRE     NOT AVBL
BLACK RVR FLS  PTSUNNY   65  58  80 S9        29.87F
MEDFORD        CLOUDY    62  58  87 S9        29.93F
WAUSAU         CLOUDY    62  59  90 SE6       29.95F
WIS RAPIDS     CLOUDY    62  58  86 S8        29.98F
MARSHFIELD     CLOUDY    63  58  83 S12       29.92F
RICE LAKE      CLOUDY    65  58  77 S6        29.88R
$$

...NORTHEAST IOWA...


CITY           SKY/WX    TMP DP  RH WIND       PRES   REMARKS
WATERLOO       LGT RAIN  63  61  93 S5        29.94R
DUBUQUE        CLOUDY    60  58  92 S14G25    29.98F
DECORAH        CLOUDY    61  59  94 SE12G18   29.92F
MASON CITY     LGT RAIN  65  64  97 S12       29.93R FOG
CHARLES CITY   LGT RAIN  63  63 100 S10G17    29.94R
OELWEIN        CLOUDY    63  61  94 SE12      29.95S
$$

...ELSEWHERE IN IOWA...


CITY           SKY/WX    TMP DP  RH WIND       PRES   REMARKS
DES MOINES     CLOUDY    66  58  75 SE16G30   29.91F
IOWA CITY      LGT RAIN  61  61 100 SE14G23   29.98F
FORT DODGE     CLOUDY    64  61  88 SE9       29.91R
MARSHALLTOWN   LGT RAIN  64  62  93 S18       29.91R
CEDAR RAPIDS   CLOUDY    61  58  90 S13       29.95F
$$

...NORTHERN ILLINOIS...


CITY           SKY/WX    TMP DP  RH WIND       PRES   REMARKS
CHICAGO-OHARE  CLOUDY    63  50  62 SW8       30.09S
DUPAGE         CLOUDY    60  54  80 S3        30.09S
CHICAGO-MIDWAY CLOUDY    64  53  67 VRB5      30.09R
MOLINE         LGT RAIN  61  58  90 SE7       30.05F FOG
ROCKFORD       LGT RAIN  60  55  83 S6        30.10F
STERLING       CLOUDY    59  55  88 CALM      30.08F
PEORIA         LGT RAIN  64  57  78 E3        30.11R
$$

NOTE: "FAIR" INDICATES FEW OR NO CLOUDS BELOW 12,000 FEET WITH NO
SIGNIFICANT WEATHER AND/OR OBSTRUCTIONS TO VISIBILITY. WIND
SPEEDS ARE IN MILES-PER-HOUR.



USA.gov is the U.S. government's official web portal to all federal, state and local government web resources and services.